Location: Norton
(51.3000°N, 0.8167°E)
Time: 00:56:58
(UTC+00:00)

DMSP B5D2-2 - Pass Details

Date: 03 March 2021
Orbit: 789 x 807 km, 98.3° (Epoch: 13 April)

Event Time Altitude Azimuth Distance (km) Brightness Sun altitude
Rises 19:45:56 0° 13° (NNE) 3,315 7.3 -20.1°
Reaches altitude 10° 19:48:16 10° 13° (NNE) 2,378 6.6 -20.5°
Maximum altitude 19:53:32 82° 288° (WNW) 808 4.1 -21.3°
Drops below altitude 10° 19:58:44 10° 201° (SSW) 2,352 6.5 -22.1°
Sets 20:01:02 0° 200° (SSW) 3,275 7.3 -22.4°
